Location: Riverton
(43.0250°N, 108.3790°W)
Time: 19:31:17
(UTC-06:00)

Daily predictions for brighter satellites

Satellite Brightness Start Highest point End
(mag) Time Altitude Azimuth Time Altitude Azimuth Time Altitude Azimuth
Meteor 1-23 Rocket 4.2 20:18:38 10° N 20:24:17 76° ENE 20:29:59 10° SSE
Cosmos 1633 2.8 20:22:35 10° SSW 20:26:14 77° W 20:29:54 10° N
NOSS 2-1 (E) 3.4 20:24:20 10° SSW 20:28:13 75° SE 20:32:45 10° NE
BREEZE-M DEB (TANK) 4.2 20:26:31 10° NW 20:29:14 36° NNE 20:35:42 10° E
Cosmos 2239 Rocket 4.5 20:25:19 10° S 20:31:33 78° E 20:37:44 10° N
CZ-2D R/B 3.4 20:28:17 10° SSE 20:32:05 59° ENE 20:35:56 10° N
Lacrosse 5 3.3 20:30:06 10° NNW 20:34:23 27° NNE 20:38:39 10° E
Resurs 01 Rocket 2.7 20:30:23 10° S 20:34:41 49° W 20:39:00 10° NNW
ATLAS CENTAUR R/B 3.7 20:30:42 10° WSW 20:35:16 34° NW 20:39:45 10° NNE
Cosmos 1934 Rocket 4.0 20:35:38 10° S 20:41:42 73° E 20:47:55 10° NNE
Cosmos 1777 Rocket 4.3 20:37:35 10° NNW 20:42:50 73° WSW 20:48:04 10° S
Tiangong 1 1.0 20:42:24 10° W 20:45:30 80° S 20:48:23 11° E
Cosmos 1346 Rocket 2.7 20:41:34 10° N 20:45:31 72° E 20:49:28 10° SSE
OTV 4 1.7 20:43:33 10° WSW 20:46:09 27° S 20:48:16 13° SE
USA 186 1.6 20:43:11 10° SSE 20:46:16 66° ENE 20:49:10 10° N
Cosmos 1536 4.2 20:45:20 10° SSW 20:49:09 43° WNW 20:53:01 10° N
Cosmos 1544 Rocket 3.7 20:45:42 10° S 20:50:04 82° W 20:54:31 10° N
Cosmos 2227 Rocket 2.2 20:48:32 10° NNW 20:54:14 76° ENE 20:59:52 10° SSE
EP 1 4.1 20:52:29 10° SSW 20:54:57 56° ESE 20:57:31 10° NE
RESURS DK-1 4.2 20:53:08 10° N 20:56:02 18° NE 20:58:17 13° E
Cosmos 1500 4.3 20:53:26 12° SE 20:56:04 23° E 20:59:06 10° NE
FENGYUN 3A 3.9 20:51:21 10° S 20:56:41 74° WSW 21:02:04 10° NNW
Cosmos 2208 Rocket 4.0 20:53:35 10° SSW 20:58:54 85° ESE 21:04:20 10° NNE
CZ-3C R/B 4.4 20:08:21 10° WSW 21:00:26 31° SSW 21:09:46 10° SSE
CZ-4 DEB 3.1 20:59:28 15° SE 21:01:45 44° ENE 21:04:46 10° N
Cosmos 1656 4.1 20:56:57 10° S 21:02:08 38° ESE 21:07:14 10° NE
NOSS 7 (D) 4.3 20:59:48 10° SSW 21:03:15 83° SE 21:06:39 10° NE
Meteor 1-5 Rocket 4.3 20:58:45 10° SSW 21:04:03 76° W 21:09:33 10° N
Cosmos 2082 3.7 21:02:05 10° NNW 21:07:44 89° ENE 21:13:11 11° SSE
NOSS 3-4 (A) 4.1 21:00:49 10° NW 21:07:48 69° WSW 21:15:11 10° SSE
NOSS 3-4 (C) 4.1 21:00:56 10° NW 21:07:55 70° WSW 21:15:18 10° SSE
Cosmos 1340 4.5 21:06:48 10° NNE 21:09:12 16° ENE 21:09:50 15° E
Cosmos 2297 Rocket 2.2 21:04:13 10° NNW 21:09:53 73° ENE 21:14:38 15° SSE
Cosmos 1515 3.8 21:13:51 10° N 21:17:40 57° E 21:20:00 21° SSE
Envisat 3.2 21:14:27 17° SE 21:18:13 53° ENE 21:23:10 10° N
H-2A R/B 4.1 21:19:52 10° ENE 21:21:06 11° ENE 21:22:21 10° NE
Cosmos 1937 Rocket 4.1 21:16:13 10° N 21:21:10 40° ENE 21:23:51 24° ESE
SJ-11-01 4.2 21:16:59 12° SSE 21:21:17 81° ENE 21:26:00 10° N
Cosmos 2173 Rocket 4.4 21:17:29 10° SSE 21:23:21 43° E 21:29:17 10° NNE
YAOGAN 6 3.9 21:24:04 23° E 21:24:34 23° ENE 21:27:33 10° NNE
ASTEX 1 4.4 21:20:26 10° NNE 21:24:42 27° E 21:25:57 25° ESE
OAO 2 Rocket 4.3 21:21:28 10° SW 21:25:52 30° S 21:27:30 25° SE
Cosmos 1605 Rocket 4.3 21:20:32 10° SSW 21:26:52 73° W 21:33:10 10° N
Cosmos 1743 3.5 21:28:23 31° ESE 21:28:52 32° E 21:32:24 10° NNE
Cosmos 1825 Rocket 4.2 21:27:07 10° N 21:31:16 37° ENE 21:32:30 31° ESE
YAOGAN 11 4.3 21:27:51 13° S 21:31:52 76° WSW 21:36:21 10° NNW
Iridium 4 Rocket 3.4 21:26:42 10° N 21:31:56 84° W 21:36:37 10° S
Cosmos 2150 Rocket 4.0 21:26:58 10° NNW 21:32:06 64° ENE 21:34:52 27° SE
Cosmos 2100 Rocket 4.1 21:27:38 10° SSE 21:33:46 57° E 21:39:52 10° NNE
Cosmos 1975 3.1 21:29:56 10° SSW 21:34:01 72° W 21:38:08 10° N
Cosmos 2061 Rocket 4.1 21:29:06 12° SSE 21:34:49 53° E 21:40:53 10° NNE
DELTA 2 R/B (1) 3.9 21:33:23 10° W 21:38:47 53° SSW 21:41:10 31° SE
MetOp-A 4.4 21:36:24 28° SE 21:38:51 49° ENE 21:44:01 10° N
Cosmos 972 Rocket 4.5 21:33:39 10° NNW 21:39:28 64° ENE 21:43:06 27° SE
SPOT 1/Viking Rocket 4.4 21:37:52 27° E 21:39:30 33° ENE 21:44:07 10° N
Cosmos 1953 Rocket 4.3 21:36:09 10° N 21:40:14 34° ENE 21:40:55 32° E
Cosmos 1066 Rocket 4.2 21:35:48 10° N 21:41:29 81° E 21:45:23 22° SSE
Lacrosse 5 rocket 1.6 21:40:34 10° NW 21:44:09 49° SW 21:45:09 37° S
H-2A R/B 1.9 21:43:40 39° SE 21:45:04 70° ENE 21:49:12 10° N
BREEZE-M DEB (TANK) 3.9 21:30:09 10° SW 21:45:10 66° SSE 21:48:16 23° E
BREEZE-M DEB (TANK) 2.3 21:44:25 10° NW 21:46:39 54° NNE 21:47:27 41° ENE
Cosmos 1697 Rocket 2.6 21:43:37 10° SSW 21:49:13 70° ESE 21:54:51 10° NNE
ERS-1 Rocket 3.5 21:47:45 15° S 21:51:50 57° W 21:56:48 10° NNW
deb Chang Zheng 4 3.5 21:48:50 10° NNE 21:53:18 75° ESE 21:55:42 27° S
SL-16 R/B 4.3 21:57:21 12° ENE 21:57:21 12° ENE 21:57:53 10° ENE
Cosmos 1898 Rocket 3.6 21:51:34 10° NNW 21:56:53 74° WSW 21:59:26 31° S
Cosmos 1758 Rocket 3.8 21:55:10 10° N 21:59:23 45° ENE 21:59:30 45° E
Cosmos 1763 Rocket 3.6 22:04:14 48° ESE 22:04:29 49° ESE 22:09:22 10° NNE
Cosmos 1939 Rocket 4.0 22:03:35 22° SSW 22:05:49 42° W 22:09:47 10° NNW
Nimbus 7 Rocket 4.4 21:59:44 10° NNE 22:05:50 87° ESE 22:11:53 10° SSW
Cosmos 1725 Rocket 4.2 22:07:24 41° ESE 22:08:40 47° E 22:14:36 10° NNE
Milstar 3 Cent rocket 4.4 21:52:22 10° WSW 22:10:11 41° SSW 22:14:46 30° SSE
Cosmos 1980 Rocket 2.1 22:08:26 29° S 22:11:21 65° ESE 22:17:00 10° NNE
Cosmos 1459 Rocket 4.0 22:05:51 13° S 22:11:22 80° W 22:17:29 10° N
ARGOS 3.2 22:12:23 50° ESE 22:13:25 60° ENE 22:18:44 10° N
Cosmos 468 Rocket 4.3 22:11:56 10° SSW 22:17:00 63° WNW 22:22:07 10° NNE
Lacrosse 5 1.7 22:12:48 10° NW 22:17:54 85° SW 22:18:37 65° SE
Cosmos 2084 3.9 22:14:43 10° NW 22:18:39 47° WSW 22:18:57 46° SW
Cosmos 1666 4.0 22:22:16 31° NNE 22:22:16 31° NNE 22:24:25 10° NNE
Cosmos 2058 Rocket 3.3 22:21:53 55° NE 22:21:53 55° NE 22:25:45 10° NNE
Tiangong 1 3.1 22:18:54 10° W 22:20:22 25° W 22:20:22 25° W
SPOT 5 3.3 22:20:37 39° SSW 22:22:21 61° WSW 22:27:11 10° NNW
Cosmos 841 Rocket 3.4 22:25:05 67° ESE 22:25:11 67° ESE 22:30:23 10° NNE
Cosmos 1814 Rocket 4.4 22:20:00 10° SSW 22:25:17 64° WNW 22:30:35 10° NNE
Meteor 1-21 4.4 22:24:37 10° NNW 22:30:22 71° W 22:32:13 44° SSW
MetOp-B 4.5 22:30:43 42° SSW 22:32:20 60° WSW 22:37:39 10° NNW
Cosmos 1606 Rocket 3.9 22:31:47 56° WSW 22:32:23 63° W 22:36:48 10° N
USA 215 3.4 22:32:14 45° E 22:34:16 67° NE 22:40:46 10° NW
RESURS DK-1 3.1 22:30:23 10° NW 22:34:13 47° WSW 22:34:13 47° WSW
Cosmos 2233 Rocket 4.3 22:36:30 48° E 22:36:30 48° E 22:42:14 10° NNE
Cosmos 1802 Rocket 4.5 22:32:30 16° SSW 22:37:33 60° W 22:43:57 10° N
Cosmos 2263 Rocket 3.3 22:34:54 10° N 22:39:47 30° NE 22:39:56 30° ENE
CZ-4C R/B 4.5 22:41:00 41° NNE 22:41:00 41° NNE 22:44:17 10° N
Cosmos 2322 Rocket 3.3 22:45:09 30° NE 22:45:09 30° NE 22:48:13 10° NE
Cosmos 1340 4.1 22:41:36 10° NNW 22:44:44 34° W 22:44:44 34° W
SL-08 RB Rocket 3.8 22:45:33 75° NW 22:45:33 75° NW 22:49:52 10° NNW
Landsat 7 4.1 22:46:39 60° NNE 22:46:39 60° NNE 22:50:44 10° N
Cosmos 2360 4.1 22:48:34 71° SSW 22:49:15 89° WNW 22:55:01 10° NNE
Meteor 2-9 Rocket 4.2 22:52:14 69° SW 22:52:47 77° W 22:58:15 10° N
SL-19 R/B 4.5 22:48:12 10° N 22:53:39 63° WNW 22:55:05 46° SW
CZ-4 R/B 4.3 22:49:58 10° NNE 22:53:38 54° NNE 22:53:38 54° NNE
Cosmos 2227 4.4 22:51:18 10° NNW 22:56:58 61° WSW 22:57:19 60° SW
H-2A R/B 2.2 23:00:30 64° N 23:00:30 64° N 23:04:42 10° NNW
Terra 2.5 23:02:31 49° N 23:02:31 49° N 23:06:06 10° N
GEOS 3 Rocket 4.0 23:07:17 10° NNE 23:11:27 58° NNE 23:11:27 58° NNE
CZ-4B R/B 4.4 23:18:29 10° N 23:22:55 40° WNW 23:22:56 40° WNW
SL-16 R/B 2.8 23:39:10 52° N 23:39:10 52° N 23:43:31 10° NNE
Cosmos 1844 Rocket 4.3 23:48:22 10° N 23:52:09 26° NE 23:52:09 26° NE
